Regional Weather Roundup
Issued by NWS Kansas City/Pleasant Hill, MO

Home | Current Version | Previous Version | Text Only | Print | Product List | Glossary On
Versions: 1 2 3 4 5 6 7 8 9 10 11 12 13 14 15 16 17 18 19 20 21 22 23 24 25 26 27
000
ASUS43 KEAX 242010
RWREAX

WEATHER ROUNDUP FOR EASTERN KANSAS AND NORTHWEST MISSOURI
NATIONAL WEATHER SERVICE KANSAS CITY/PLEASANT HILL MO
300 PM CDT FRI MAR 24 2017

KSZ040-057-103>105-MOZ028-029-037-043-242100-
...KANSAS CITY METROPOLITAN AREA...

CITY           SKY/WX    TMP DP  RH WIND       PRES   REMARKS
K.C. INTL      LGT RAIN  60  56  86 E10       29.86F
K.C. DOWNTOWN  LGT RAIN  63  59  87 S7        29.85S
LEES SUMMIT    LGT RAIN  61  59  93 S14       29.87S FOG
OLATHE - IXD   CLOUDY    64  57  78 S8        29.85F
OLATHE - OJC   LGT RAIN  62  59  90 S15       29.85S
LAWRENCE       CLOUDY    66  58  75 SE5       29.84S

$$

MOZ001>008-011>017-020>025-030>033-038>040-044>046-053-054-242100-
...NORTHERN AND CENTRAL MISSOURI...

CITY           SKY/WX    TMP DP  RH WIND       PRES   REMARKS
ST. JOSEPH     CLOUDY    60  57  89 E12       29.85F
MOSBY          RAIN      59  54  82 E3        29.88S
WARRENSBURG    RAIN      61  55  82 S6        29.88S
WHITEMAN AFB   LGT RAIN  62  61  98 S15       29.88S FOG
CLINTON        CLOUDY    63  57  82 S6        29.90S
SEDALIA        LGT RAIN  61  57  87 S17       29.91F
WARSAW         NOT AVBL
CHILLICOTHE      N/A     57  56  96 E5        29.93F
KIRKSVILLE     LGT RAIN  56  32  40 SW3       29.97R

$$

MOZ041-047>049-056>058-063>065-088>090-097-242100-
...EASTERN AND SOUTHERN MISSOURI...

CITY           SKY/WX    TMP DP  RH WIND       PRES   REMARKS
ST. LOUIS INTL PTSUNNY   81  52  36 SW30G37   29.95F
SPIRIT OF STL  CLOUDY    77  51  40 SW18G35   29.93F
COLUMBIA       CLOUDY    63  57  81 W9        29.93S
JEFFERSON CITY CLOUDY    75  50  41 SW16G24   29.91F
ROLLA          CLOUDY    73  52  47 S17G30    29.92F
OSAGE BEACH    CLOUDY   N/A N/A N/A S16G22    29.90F
SPRINGFIELD    LGT RAIN  64  55  72 S16G30    29.92R
BRANSON        CLOUDY    68  54  60 S14G23    29.93F
JOPLIN         LGT RAIN  61  58  90 S16G26    29.83F
WEST PLAINS    CLOUDY    71  54  54 S14G23    29.99F

$$

IAZ060-094-KSZ022-034>040-054-083-096-NEZ052-066-093-242100-
...KANSAS...SOUTHEAST NEBRASKA AND IOWA...

CITY           SKY/WX    TMP DP  RH WIND       PRES   REMARKS
TOPEKA         CLOUDY    67  57  70 SE12      29.82R
MANHATTAN      LGT RAIN  61  53  75 NE14      29.78F
EMPORIA        CLOUDY    69  56  62 S12G18    29.78F
CHANUTE        CLOUDY    67  56  67 S23G30    29.82F
WICHITA        MOSUNNY   74  49  41 SE13G23   29.72F
OMAHA          CLOUDY    47  42  83 N15       29.93F
LINCOLN        CLOUDY    46  42  86 NE25      29.93F
FALLS CITY     CLOUDY    64  54  69 SE8       29.82F
LAMONI         LGT RAIN  57  55  93 SE3       29.88F
DES MOINES     LGT RAIN  49  47  93 N6        29.94R FOG

$$





USA.gov is the U.S. government's official web portal to all federal, state and local government web resources and services.